SCP
0 0 0 0 0 0 0 4 5 4 5 3 2 2 2 1 1 1 1 0 0 0 0 0 0 0 0 0 0 0 0 0 0 0 0 0 0 0 0 0 0 0 0
0 0 0 0 0 0 0 1 5 5 3 3 3 3 2 1 1 1 0 0 0 0 0 0 0 0 0 0 0 0 0 0 0 0 0 0 0 0 0 0 0 0 0
0 0 0 0 0 0 0 0 3 4 3 2 4 2 0 0 0 0 0 0 0 0 0 0 0 0 0 0 0 0 0 0 0 0 0 0 0 0 0 0 0 0 0
0 0 0 0 0 0 0 0 3 3 3 2 2 1 2 1 1 0 0 0 0 0 0 0 0 0 0 0 0 0 0 0 0 0 0 0 0 0 0 0 0 0 0
0 0 0 0 0 0 0 1 2 3 3 2 2 2 2 0 0 0 0 0 0 0 0 0 0 0 0 0 0 0 0 0 0 0 0 0 0 0 0 0 0 0 0
0 0 0 0 0 0 0 1 2 2 2 2 1 1 0 0 0 0 0 0 0 0 0 0 0 0 0 0 0 0 0 0 0 0 0 0 0 0 0 0 0 0 0
0 -0 0 0 0 0 0 0 2 2 2 2 1 1 0 0 0 0 0 0 0 0 0 0 0 0 0 0 0 0 0 0 0 0 0 0 0 0 0 0 0 0 0
0 -0 -0 0 0 0 0 0 1 2 1 1 1 0 0 0 0 0 0 0 0 0 0 0 0 0 0 0 0 0 0 0 0 0 0 0 0 0 0 0 0 0 0
0 0 0 0 0 0 0 0 1 1 1 1 1 0 0 0 0 0 0 0 0 0 0 0 0 0 0 0 0 0 0 0 0 0 0 0 0 0 0 0 0 0 0
0 0 0 0 0 0 0 0 0 0 1 1 0 0 0 0 0 0 0 0 0 0 0 0 0 0 0 0 0 0 0 0 0 0 0 0 0 0 0 0 0 0 0
0 0 0 0 0 0 0 0 0 0 0 0 0 0 0 0 0 0 0 0 0 0 0 0 0 0 0 0 0 0 0 0 0 0 0 0 0 0 0 0 0 0 0
0 0 0 0 0 0 0 0 0 0 0 0 0 0 0 0 0 0 0 0 0 0 0 0 0 0 0 0 0 0 0 0 0 0 0 0 0 0 0 0 0 0 0
0 0 0 0 0 0 0 0 0 0 0 0 0 0 0 0 0 0 0 0 0 0 0 0 0 0 0 0 0 0 0 0 0 0 0 0 0 0 0 0 0 0 0
0 0 0 0 0 0 0 0 0 0 0 0 0 0 0 0 0 0 0 0 0 0 0 0 0 0 0 0 0 0 0 0 0 0 0 0 0 0 0 0 0 0 0
-0 -0 0 0 0 0 0 0 0 0 0 0 0 0 0 0 0 0 0 0 0 0 0 0 0 0 0 0 0 0 0 0 0 0 0 0 0 0 0 0 0 0 0
-0 -0 -0 0 0 0 0 0 0 0 0 0 0 0 0 0 0 0 0 0 0 0 0 0 0 0 0 0 0 0 0 0 0 0 0 0 0 0 0 0 0 0 0
0 0 -0 0 0 0 0 0 0 0 0 0 0 0 0 0 0 0 0 0 0 0 0 0 0 0 0 0 0 0 0 0 0 0 0 0 0 0 0 0 0 0 0
0 0 0 0 0 0 0 0 0 0 0 0 0 0 0 0 0 0 0 0 0 0 0 0 0 0 0 0 0 0 0 0 0 0 0 0 0 0 0 0 0 0 0
0 0 0 0 0 0 0 0 0 0 0 0 0 0 0 0 0 0 0 0 0 0 0 0 0 0 0 0 0 0 0 0 0 0 0 0 0 0 0 0 0 0 0
0 0 0 0 0 0 0 0 0 0 0 0 0 0 0 0 0 0 0 0 0 0 0 0 0 0 0 0 0 0 0 0 0 0 0 0 0 0 0 0 0 0 0
0 0 0 0 0 0 0 0 0 0 0 0 0 0 0 0 0 0 0 0 0 0 0 0 0 0 0 0 0 0 0 0 0 0 0 0 0 0 0 0 0 0 0
0 0 0 0 0 0 0 0 0 0 0 0 0 0 0 0 0 0 0 0 0 0 0 0 0 0 0 0 0 0 0 0 0 0 0 0 0 0 0 0 0 0 0
0 0 0 0 0 0 0 0 0 0 0 0 0 0 0 0 0 0 0 0 0 0 0 0 0 0 0 0 0 0 0 0 0 0 0 0 0 0 0 0 0 0 0
0 0 0 0 0 0 0 0 0 0 0 0 0 0 0 0 0 0 0 0 0 0 0 0 0 0 0 0 0 0 0 0 0 0 0 0 0 0 0 0 0 0 0
0 0 0 0 0 0 0 0 0 0 0 0 0 0 0 0 0 0 0 0 0 0 0 0 0 0 0 0 0 0 0 0 0 0 0 0 0 0 0 0 0 0 0
0 0 0 0 0 -0 -0 -0 -0 -0 -0 0 0 0 -0 0 0 0 0 0 0 0 0 0 0 0 0 0 0 0 0 0 0 0 0 0 0 0 0 0 0 0 0
Wind_Speed_500mb
73 78 71 65 58 47 78 93 81 70 75 87 82 81 77 76 72 61 58 56 52 51 50 52 54 56 55 52 46 44 57 59 58 48 45 60 68 66 65 61 48 36 30
83 88 87 72 69 65 58 81 95 82 79 87 90 89 90 82 71 64 60 55 52 51 50 51 53 52 54 52 50 49 55 59 59 53 36 30 55 67 70 58 45 35 30
74 86 77 75 71 79 69 71 83 89 86 82 97 89 88 74 62 64 61 56 56 49 50 48 48 48 49 49 53 54 58 56 59 57 36 25 15 67 69 65 48 40 32
17 5 28 54 60 55 64 73 73 89 90 92 98 94 97 80 75 73 64 56 52 53 51 52 47 48 49 49 48 51 57 55 59 60 63 52 54 55 42 63 50 44 40
32 35 22 2 17 40 64 60 62 87 94 94 96 98 90 77 69 66 57 50 50 54 51 53 52 51 51 52 56 59 65 63 61 66 68 61 62 64 62 52 59 58 53
43 40 31 21 16 6 24 43 65 84 95 97 102 92 85 77 70 62 57 51 44 51 54 49 53 57 59 62 64 69 69 66 63 67 76 86 77 85 67 52 70 72 63
50 47 47 36 29 14 9 49 66 82 90 96 90 87 80 72 66 60 58 50 45 48 46 42 49 60 62 67 69 66 67 68 66 72 83 92 76 71 69 62 67 70 61
39 48 45 42 34 27 1 43 60 66 71 81 84 74 68 68 59 55 51 47 41 39 34 41 51 53 55 57 55 55 65 71 73 81 91 95 83 76 84 68 62 56 70
39 38 43 40 37 42 16 29 58 62 68 75 67 63 55 55 52 46 40 38 32 35 35 42 52 59 53 53 57 56 59 69 68 87 95 98 92 76 68 71 67 57 52
48 49 47 46 40 39 37 24 35 52 62 68 63 62 51 48 45 40 43 36 33 45 46 43 42 39 37 41 50 59 67 73 77 94 79 82 95 72 70 66 67 53 43
52 49 49 47 44 38 35 23 24 33 40 40 57 48 50 46 41 41 42 36 35 40 40 39 34 33 35 31 32 42 45 46 77 80 74 83 99 88 63 53 63 60 46
53 56 53 49 46 43 37 25 25 16 27 27 40 31 42 38 40 42 39 29 29 31 28 24 23 27 30 26 31 35 34 34 56 62 78 81 95 99 65 60 55 52 51
51 59 57 55 51 47 39 20 7 7 20 44 48 51 49 45 43 35 25 22 27 26 22 21 25 26 22 22 20 23 20 21 36 59 86 93 88 86 63 61 61 44 44
48 60 61 57 51 45 40 30 12 16 16 31 49 53 50 48 47 38 35 33 31 27 23 20 22 20 19 17 14 13 16 12 33 42 59 79 83 87 77 67 62 59 52
49 54 59 56 52 44 38 33 21 16 35 51 56 59 50 44 41 40 37 35 34 28 27 23 24 24 21 21 21 18 18 26 30 40 58 58 72 77 75 77 64 64 66
41 47 52 54 54 49 41 36 28 17 26 47 60 47 50 43 41 37 37 37 34 31 28 28 26 27 24 22 19 22 31 30 26 27 33 40 43 43 54 58 57 51 50
36 45 50 52 49 47 40 38 33 22 14 32 38 52 51 49 44 42 42 30 39 40 39 32 29 29 27 24 24 24 25 31 33 33 34 34 36 36 41 45 44 51 51
39 43 45 47 45 41 38 35 33 28 21 24 24 34 45 47 47 48 41 50 54 48 42 40 37 36 32 28 28 28 31 32 34 33 33 33 34 39 42 43 44 47 51
34 36 36 40 43 47 46 42 43 41 35 36 35 30 18 37 36 46 44 46 45 44 42 38 37 36 35 36 34 32 36 38 39 38 37 38 38 41 42 38 36 35 32
33 35 40 40 43 46 48 53 57 53 53 48 42 40 38 30 23 26 29 32 38 39 36 37 34 31 30 32 30 32 36 41 40 36 35 33 30 27 28 27 27 27 23
32 36 40 49 45 41 44 51 50 52 46 46 47 47 45 46 42 38 30 27 35 39 38 36 35 27 25 25 20 17 21 30 36 37 37 35 31 33 29 23 24 21 20
32 40 49 52 49 44 43 46 46 37 35 37 47 47 48 45 46 47 45 42 38 34 42 44 47 48 42 39 33 30 31 31 34 39 41 40 26 24 23 19 20 21 22
33 35 41 45 48 52 53 48 39 31 32 37 40 39 40 40 38 40 40 43 41 45 48 47 51 53 49 48 42 36 31 27 34 37 34 33 21 16 25 29 21 21 19
31 31 35 43 44 41 42 44 43 36 36 39 39 39 40 39 39 40 40 39 40 40 41 41 43 43 39 38 35 34 30 27 24 25 23 24 21 15 14 20 18 15 15
32 31 37 38 38 34 35 34 33 32 37 39 39 38 37 36 36 38 39 36 37 31 33 33 31 31 32 30 23 20 18 17 17 14 14 16 15 18 18 18 16 15 11
31 32 34 32 33 32 33 33 31 27 27 30 32 34 33 33 32 30 30 32 30 26 25 26 21 25 26 22 14 12 12 12 12 9 13 19 19 17 16 14 13 11 10
Wind_Direction_500mb
286 281 278 275 264 260 246 239 236 225 220 224 224 218 217 222 221 227 228 222 220 220 222 219 219 224 225 226 224 220 216 218 220 224 241 221 218 208 207 195 198 205 211
284 278 274 271 268 257 256 248 236 226 219 222 224 225 217 218 225 222 220 218 217 220 219 216 215 219 220 220 223 217 213 219 218 219 212 178 197 196 190 194 200 204 212
283 275 263 263 257 256 250 256 240 231 221 221 220 221 225 220 214 216 216 216 215 215 218 219 218 219 220 222 217 215 214 218 216 220 199 160 192 185 191 195 194 196 212
24 263 238 245 253 257 253 255 248 230 221 218 216 221 222 210 216 217 212 212 212 215 219 222 220 219 222 226 224 222 222 221 221 214 214 207 201 177 183 198 201 206 216
29 10 34 337 260 259 251 247 235 219 215 216 215 219 216 216 220 211 211 217 218 218 215 216 216 217 227 230 230 231 227 231 227 223 210 197 176 181 178 182 201 214 219
22 356 355 8 20 302 240 221 223 216 214 214 214 215 216 217 215 208 214 211 218 216 215 221 216 220 230 235 236 236 237 234 233 227 217 200 189 192 196 203 204 208 211
14 355 353 357 9 19 219 201 212 212 213 213 214 213 218 221 217 211 211 209 211 212 211 213 222 228 233 241 244 240 240 236 234 224 208 196 208 213 206 202 207 206 212
6 1 359 5 9 11 144 204 203 213 220 211 214 218 216 219 217 212 211 212 213 219 210 214 227 226 235 234 240 240 242 239 231 228 212 212 205 202 205 208 215 209 216
17 6 11 13 14 28 52 188 207 216 215 214 219 217 220 212 210 206 207 208 214 218 212 226 234 236 239 239 242 243 240 229 246 222 223 215 214 210 210 210 217 217 206
11 15 13 14 18 28 49 140 193 213 222 218 220 220 214 203 210 208 205 203 214 220 220 231 224 222 233 244 243 238 237 237 233 211 228 224 214 198 199 207 221 217 219
10 13 14 17 18 27 42 76 162 194 212 212 214 215 208 202 211 208 202 208 221 230 210 211 225 229 242 254 244 235 234 249 217 221 215 223 215 200 195 210 211 215 216
9 18 15 19 19 24 32 36 66 184 199 242 251 210 213 207 205 204 202 203 227 214 187 207 224 231 237 245 234 227 231 236 235 215 217 222 209 201 196 205 196 203 215
10 18 18 19 23 21 30 34 53 143 196 221 217 214 208 210 202 189 191 192 197 197 198 216 241 236 232 235 226 225 234 248 244 217 213 211 203 189 193 198 207 207 211
16 17 18 19 23 24 20 31 57 177 197 188 200 196 189 188 180 180 192 185 195 191 195 212 228 223 222 221 218 221 238 249 231 226 213 202 206 198 207 211 210 221 234
19 17 17 19 21 25 22 29 33 105 157 164 176 171 172 172 178 183 191 193 198 198 205 210 222 220 219 223 217 211 213 199 175 178 191 192 202 204 216 220 219 229 242
19 20 21 24 24 25 26 27 29 52 124 141 157 155 164 172 177 183 192 198 198 199 207 211 218 222 221 213 205 212 210 206 202 194 187 190 199 200 210 212 226 231 234
21 30 30 29 28 30 30 36 37 29 74 129 139 153 166 173 179 184 194 189 199 204 206 209 211 214 227 223 217 213 210 210 206 204 204 204 206 204 209 213 225 230 232
34 37 39 40 39 44 46 51 57 53 59 82 107 141 153 161 165 169 176 194 195 188 191 194 207 222 224 225 216 216 218 213 208 207 208 210 214 212 221 227 230 231 234
42 46 48 52 53 54 60 64 65 68 66 66 75 69 92 144 149 157 155 152 165 172 180 182 190 197 210 212 215 212 210 207 204 204 205 210 212 216 221 217 219 213 201
53 56 58 59 59 59 60 65 66 70 70 68 79 79 78 80 80 115 136 127 138 137 149 155 165 169 175 193 197 190 188 189 180 173 181 189 191 184 178 195 195 187 175
61 62 63 62 56 58 63 64 62 62 67 73 79 82 88 90 89 91 85 89 102 111 111 113 116 126 128 128 139 153 162 153 147 138 130 134 150 150 148 153 155 151 148
66 64 66 65 62 56 61 63 62 65 72 73 72 77 85 91 94 99 101 102 101 99 97 96 94 96 98 104 104 111 116 121 123 117 117 116 125 132 137 135 132 136 140
70 67 66 66 62 62 60 62 61 66 70 72 75 76 78 80 87 92 95 97 98 99 100 101 97 95 96 97 95 98 101 104 111 113 111 114 117 129 131 121 123 124 126
74 73 71 69 66 60 62 64 61 62 68 73 75 78 82 86 89 92 93 93 96 97 98 97 98 97 93 87 92 95 98 101 102 103 110 111 117 120 110 117 129 127 127
83 80 76 74 72 69 67 65 62 65 70 72 73 75 77 81 91 94 93 95 95 93 98 99 100 104 102 100 99 96 96 93 94 101 122 125 131 137 140 134 131 127 123
85 82 78 75 72 71 70 67 62 58 65 73 72 71 71 73 75 76 86 93 96 98 97 100 96 108 113 121 116 105 105 103 96 123 126 122 119 113 105 102 102 108 109
Wind_Speed_850mb
73 78 71 65 58 47 78 93 81 70 75 87 82 81 77 76 72 61 58 56 52 51 50 52 54 56 55 52 46 44 57 59 58 48 45 60 68 66 65 61 48 36 30
83 88 87 72 69 65 58 81 95 82 79 87 90 89 90 82 71 64 60 55 52 51 50 51 53 52 54 52 50 49 55 59 59 53 36 30 55 67 70 58 45 35 30
74 86 77 75 71 79 69 71 83 89 86 82 97 89 88 74 62 64 61 56 56 49 50 48 48 48 49 49 53 54 58 56 59 57 36 25 15 67 69 65 48 40 32
17 5 28 54 60 55 64 73 73 89 90 92 98 94 97 80 75 73 64 56 52 53 51 52 47 48 49 49 48 51 57 55 59 60 63 52 54 55 42 63 50 44 40
32 35 22 2 17 40 64 60 62 87 94 94 96 98 90 77 69 66 57 50 50 54 51 53 52 51 51 52 56 59 65 63 61 66 68 61 62 64 62 52 59 58 53
43 40 31 21 16 6 24 43 65 84 95 97 102 92 85 77 70 62 57 51 44 51 54 49 53 57 59 62 64 69 69 66 63 67 76 86 77 85 67 52 70 72 63
50 47 47 36 29 14 9 49 66 82 90 96 90 87 80 72 66 60 58 50 45 48 46 42 49 60 62 67 69 66 67 68 66 72 83 92 76 71 69 62 67 70 61
39 48 45 42 34 27 1 43 60 66 71 81 84 74 68 68 59 55 51 47 41 39 34 41 51 53 55 57 55 55 65 71 73 81 91 95 83 76 84 68 62 56 70
39 38 43 40 37 42 16 29 58 62 68 75 67 63 55 55 52 46 40 38 32 35 35 42 52 59 53 53 57 56 59 69 68 87 95 98 92 76 68 71 67 57 52
48 49 47 46 40 39 37 24 35 52 62 68 63 62 51 48 45 40 43 36 33 45 46 43 42 39 37 41 50 59 67 73 77 94 79 82 95 72 70 66 67 53 43
52 49 49 47 44 38 35 23 24 33 40 40 57 48 50 46 41 41 42 36 35 40 40 39 34 33 35 31 32 42 45 46 77 80 74 83 99 88 63 53 63 60 46
53 56 53 49 46 43 37 25 25 16 27 27 40 31 42 38 40 42 39 29 29 31 28 24 23 27 30 26 31 35 34 34 56 62 78 81 95 99 65 60 55 52 51
51 59 57 55 51 47 39 20 7 7 20 44 48 51 49 45 43 35 25 22 27 26 22 21 25 26 22 22 20 23 20 21 36 59 86 93 88 86 63 61 61 44 44
48 60 61 57 51 45 40 30 12 16 16 31 49 53 50 48 47 38 35 33 31 27 23 20 22 20 19 17 14 13 16 12 33 42 59 79 83 87 77 67 62 59 52
49 54 59 56 52 44 38 33 21 16 35 51 56 59 50 44 41 40 37 35 34 28 27 23 24 24 21 21 21 18 18 26 30 40 58 58 72 77 75 77 64 64 66
41 47 52 54 54 49 41 36 28 17 26 47 60 47 50 43 41 37 37 37 34 31 28 28 26 27 24 22 19 22 31 30 26 27 33 40 43 43 54 58 57 51 50
36 45 50 52 49 47 40 38 33 22 14 32 38 52 51 49 44 42 42 30 39 40 39 32 29 29 27 24 24 24 25 31 33 33 34 34 36 36 41 45 44 51 51
39 43 45 47 45 41 38 35 33 28 21 24 24 34 45 47 47 48 41 50 54 48 42 40 37 36 32 28 28 28 31 32 34 33 33 33 34 39 42 43 44 47 51
34 36 36 40 43 47 46 42 43 41 35 36 35 30 18 37 36 46 44 46 45 44 42 38 37 36 35 36 34 32 36 38 39 38 37 38 38 41 42 38 36 35 32
33 35 40 40 43 46 48 53 57 53 53 48 42 40 38 30 23 26 29 32 38 39 36 37 34 31 30 32 30 32 36 41 40 36 35 33 30 27 28 27 27 27 23
32 36 40 49 45 41 44 51 50 52 46 46 47 47 45 46 42 38 30 27 35 39 38 36 35 27 25 25 20 17 21 30 36 37 37 35 31 33 29 23 24 21 20
32 40 49 52 49 44 43 46 46 37 35 37 47 47 48 45 46 47 45 42 38 34 42 44 47 48 42 39 33 30 31 31 34 39 41 40 26 24 23 19 20 21 22
33 35 41 45 48 52 53 48 39 31 32 37 40 39 40 40 38 40 40 43 41 45 48 47 51 53 49 48 42 36 31 27 34 37 34 33 21 16 25 29 21 21 19
31 31 35 43 44 41 42 44 43 36 36 39 39 39 40 39 39 40 40 39 40 40 41 41 43 43 39 38 35 34 30 27 24 25 23 24 21 15 14 20 18 15 15
32 31 37 38 38 34 35 34 33 32 37 39 39 38 37 36 36 38 39 36 37 31 33 33 31 31 32 30 23 20 18 17 17 14 14 16 15 18 18 18 16 15 11
31 32 34 32 33 32 33 33 31 27 27 30 32 34 33 33 32 30 30 32 30 26 25 26 21 25 26 22 14 12 12 12 12 9 13 19 19 17 16 14 13 11 10
Wind_Direction_850mb
286 281 278 275 264 260 246 239 236 225 220 224 224 218 217 222 221 227 228 222 220 220 222 219 219 224 225 226 224 220 216 218 220 224 241 221 218 208 207 195 198 205 211
284 278 274 271 268 257 256 248 236 226 219 222 224 225 217 218 225 222 220 218 217 220 219 216 215 219 220 220 223 217 213 219 218 219 212 178 197 196 190 194 200 204 212
283 275 263 263 257 256 250 256 240 231 221 221 220 221 225 220 214 216 216 216 215 215 218 219 218 219 220 222 217 215 214 218 216 220 199 160 192 185 191 195 194 196 212
24 263 238 245 253 257 253 255 248 230 221 218 216 221 222 210 216 217 212 212 212 215 219 222 220 219 222 226 224 222 222 221 221 214 214 207 201 177 183 198 201 206 216
29 10 34 337 260 259 251 247 235 219 215 216 215 219 216 216 220 211 211 217 218 218 215 216 216 217 227 230 230 231 227 231 227 223 210 197 176 181 178 182 201 214 219
22 356 355 8 20 302 240 221 223 216 214 214 214 215 216 217 215 208 214 211 218 216 215 221 216 220 230 235 236 236 237 234 233 227 217 200 189 192 196 203 204 208 211
14 355 353 357 9 19 219 201 212 212 213 213 214 213 218 221 217 211 211 209 211 212 211 213 222 228 233 241 244 240 240 236 234 224 208 196 208 213 206 202 207 206 212
6 1 359 5 9 11 144 204 203 213 220 211 214 218 216 219 217 212 211 212 213 219 210 214 227 226 235 234 240 240 242 239 231 228 212 212 205 202 205 208 215 209 216
17 6 11 13 14 28 52 188 207 216 215 214 219 217 220 212 210 206 207 208 214 218 212 226 234 236 239 239 242 243 240 229 246 222 223 215 214 210 210 210 217 217 206
11 15 13 14 18 28 49 140 193 213 222 218 220 220 214 203 210 208 205 203 214 220 220 231 224 222 233 244 243 238 237 237 233 211 228 224 214 198 199 207 221 217 219
10 13 14 17 18 27 42 76 162 194 212 212 214 215 208 202 211 208 202 208 221 230 210 211 225 229 242 254 244 235 234 249 217 221 215 223 215 200 195 210 211 215 216
9 18 15 19 19 24 32 36 66 184 199 242 251 210 213 207 205 204 202 203 227 214 187 207 224 231 237 245 234 227 231 236 235 215 217 222 209 201 196 205 196 203 215
10 18 18 19 23 21 30 34 53 143 196 221 217 214 208 210 202 189 191 192 197 197 198 216 241 236 232 235 226 225 234 248 244 217 213 211 203 189 193 198 207 207 211
16 17 18 19 23 24 20 31 57 177 197 188 200 196 189 188 180 180 192 185 195 191 195 212 228 223 222 221 218 221 238 249 231 226 213 202 206 198 207 211 210 221 234
19 17 17 19 21 25 22 29 33 105 157 164 176 171 172 172 178 183 191 193 198 198 205 210 222 220 219 223 217 211 213 199 175 178 191 192 202 204 216 220 219 229 242
19 20 21 24 24 25 26 27 29 52 124 141 157 155 164 172 177 183 192 198 198 199 207 211 218 222 221 213 205 212 210 206 202 194 187 190 199 200 210 212 226 231 234
21 30 30 29 28 30 30 36 37 29 74 129 139 153 166 173 179 184 194 189 199 204 206 209 211 214 227 223 217 213 210 210 206 204 204 204 206 204 209 213 225 230 232
34 37 39 40 39 44 46 51 57 53 59 82 107 141 153 161 165 169 176 194 195 188 191 194 207 222 224 225 216 216 218 213 208 207 208 210 214 212 221 227 230 231 234
42 46 48 52 53 54 60 64 65 68 66 66 75 69 92 144 149 157 155 152 165 172 180 182 190 197 210 212 215 212 210 207 204 204 205 210 212 216 221 217 219 213 201
53 56 58 59 59 59 60 65 66 70 70 68 79 79 78 80 80 115 136 127 138 137 149 155 165 169 175 193 197 190 188 189 180 173 181 189 191 184 178 195 195 187 175
61 62 63 62 56 58 63 64 62 62 67 73 79 82 88 90 89 91 85 89 102 111 111 113 116 126 128 128 139 153 162 153 147 138 130 134 150 150 148 153 155 151 148
66 64 66 65 62 56 61 63 62 65 72 73 72 77 85 91 94 99 101 102 101 99 97 96 94 96 98 104 104 111 116 121 123 117 117 116 125 132 137 135 132 136 140
70 67 66 66 62 62 60 62 61 66 70 72 75 76 78 80 87 92 95 97 98 99 100 101 97 95 96 97 95 98 101 104 111 113 111 114 117 129 131 121 123 124 126
74 73 71 69 66 60 62 64 61 62 68 73 75 78 82 86 89 92 93 93 96 97 98 97 98 97 93 87 92 95 98 101 102 103 110 111 117 120 110 117 129 127 127
83 80 76 74 72 69 67 65 62 65 70 72 73 75 77 81 91 94 93 95 95 93 98 99 100 104 102 100 99 96 96 93 94 101 122 125 131 137 140 134 131 127 123
85 82 78 75 72 71 70 67 62 58 65 73 72 71 71 73 75 76 86 93 96 98 97 100 96 108 113 121 116 105 105 103 96 123 126 122 119 113 105 102 102 108 109